GFSNIL_sfc_temp_000.txt.gz
Temp
75 78 67 70 65 65 66 63 66 65 70 70 73 70 73 73 70 70 68 64 64 65
76 75 72 72 71 69 65 67 70 69 67 71 71 70 72 71 71 69 66 63 63 63
77 77 77 75 74 73 72 68 66 69 70 72 73 73 71 69 72 70 69 65 66 62
77 78 77 77 77 75 71 74 68 63 63 64 70 70 72 71 68 67 65 67 65 63
77 78 77 77 77 78 75 74 70 66 64 63 64 67 72 73 72 72 68 68 70 66
76 76 76 76 75 78 74 77 77 71 66 65 64 66 70 72 75 75 76 75 74 72
75 76 76 77 78 79 80 78 78 77 76 74 72 73 76 76 75 76 76 76 77 78
76 77 78 77 78 78 79 80 80 79 78 78 78 78 75 76 76 74 74 75 78 77
78 78 77 77 77 77 77 79 79 79 79 78 77 50 56 71 76 76 75 74 73 71
78 77 76 78 77 76 75 76 77 78 78 76 72 49 52 59 78 76 75 75 75 78
79 78 78 77 76 74 74 74 75 76 76 76 69 49 51 57 77 76 76 76 76 76
81 78 77 76 74 74 74 74 74 76 75 75 72 48 48 59 76 75 74 76 75 76
82 79 77 76 74 74 75 75 79 76 76 65 74 45 46 56 80 73 76 73 72 53
81 78 77 76 74 73 74 76 74 75 75 75 73 64 44 46 78 78 77 77 75 76

GFSNIL_sfc_temp_003.txt.gz
Temp
77 75 70 67 67 64 67 68 70 69 71 72 73 73 73 71 70 73 73 70 67 69
78 76 68 70 70 68 69 67 71 72 71 72 72 72 71 69 73 72 71 68 64 64
79 78 77 77 74 71 66 71 68 72 71 71 72 72 71 71 72 68 67 68 63 62
79 79 78 77 77 72 71 68 73 73 73 71 71 72 72 71 71 69 66 64 62 62
79 79 78 77 77 74 72 66 65 72 73 74 73 70 73 73 72 68 65 63 63 62
78 78 76 76 76 77 75 69 67 70 68 73 76 74 74 72 72 70 70 67 64 67
77 78 78 79 78 78 79 75 72 68 70 72 77 78 77 76 74 73 69 69 71 70
78 79 79 79 79 79 79 79 79 76 75 76 77 77 75 77 75 72 72 73 72 74
79 80 78 78 78 79 79 80 80 79 78 74 74 52 59 73 77 76 75 72 72 72
80 79 78 79 79 77 77 78 79 78 77 73 71 52 55 63 78 77 76 75 75 78
81 80 79 79 78 76 76 76 77 77 78 76 68 53 57 61 78 77 77 78 79 75
83 80 79 78 76 76 75 75 76 78 77 76 72 51 52 59 77 76 76 78 78 77
85 81 79 78 76 76 76 76 79 78 78 68 74 49 48 57 82 75 76 76 73 54
84 81 80 78 77 76 76 77 77 77 76 77 75 65 48 48 74 79 78 78 76 74

GFSNIL_sfc_temp_006.txt.gz
Temp
68 65 67 67 64 64 65 65 67 67 68 69 69 68 68 66 66 67 67 66 66 65
69 68 68 68 66 64 67 67 68 68 68 69 69 68 67 67 67 68 66 66 65 64
70 72 70 69 68 64 67 68 67 68 67 68 68 68 68 67 68 67 65 65 64 63
74 75 71 68 70 64 66 68 68 68 68 68 68 67 67 67 67 66 65 64 62 62
75 74 70 68 69 66 66 69 70 71 70 68 69 68 67 67 67 65 64 63 62 61
73 71 71 69 68 66 65 67 71 71 71 70 69 68 68 69 67 65 64 63 62 61
73 72 73 72 70 69 69 66 67 69 72 70 70 70 70 69 66 65 65 63 63 62
74 75 75 74 74 71 70 69 68 70 72 70 69 69 68 68 66 65 65 65 64 63
75 76 73 74 74 72 72 72 71 69 70 67 66 52 57 66 66 65 64 64 64 62
75 75 74 75 74 72 71 72 69 68 67 65 63 52 54 59 67 65 64 65 65 68
77 75 75 73 72 71 71 70 69 68 67 65 61 55 54 61 69 68 68 68 67 65
78 75 74 72 70 70 70 70 70 70 68 64 64 55 54 65 69 69 69 68 68 68
80 76 74 72 70 70 71 71 73 71 70 64 63 50 52 58 70 67 67 65 62 53
78 74 73 71 71 70 70 71 70 70 70 69 65 58 51 50 65 67 66 66 64 59

GFSNIL_sfc_temp_009.txt.gz
Temp
62 61 61 60 60 60 60 60 62 62 62 63 64 64 63 61 62 62 62 61 61 62
63 63 62 62 61 60 61 62 63 63 63 63 64 63 63 63 63 63 62 61 61 62
66 64 63 63 63 60 61 62 63 63 63 63 63 63 64 63 62 62 61 62 63 62
65 64 64 63 61 61 62 64 63 63 63 63 64 63 62 63 62 62 63 63 63 62
65 64 63 63 63 61 61 63 64 64 63 65 63 63 63 63 63 61 60 61 62 61
64 63 62 62 61 63 62 62 64 65 63 64 64 63 63 63 62 61 61 61 62 61
63 64 62 64 63 63 63 62 62 64 66 66 66 64 64 64 63 62 62 61 61 61
64 64 64 64 64 64 64 64 65 64 65 65 65 66 64 64 63 62 61 62 62 62
66 66 64 64 63 64 64 65 63 62 62 60 62 54 56 62 63 62 62 61 61 61
66 68 65 66 64 63 62 61 60 61 61 57 55 52 54 57 63 63 61 60 60 64
67 67 66 65 63 61 60 59 59 60 60 58 56 50 52 55 62 61 61 60 61 62
68 65 65 63 61 61 60 59 58 59 59 59 57 53 53 61 61 62 61 62 61 61
68 66 63 62 61 61 61 61 62 60 59 57 58 50 52 60 63 58 60 58 58 55
66 66 63 62 61 61 61 62 60 61 58 58 58 54 49 54 61 61 59 59 58 55

GFSNIL_sfc_temp_012.txt.gz
Temp
60 59 59 59 59 58 58 58 59 60 61 61 62 61 60 60 60 60 60 59 59 59
60 61 60 62 60 59 59 61 60 61 60 61 62 61 60 61 61 61 61 60 60 59
62 62 61 60 59 60 60 61 61 61 60 61 61 61 62 62 61 61 62 62 61 61
62 62 61 59 59 60 60 61 61 61 61 61 61 61 61 59 61 61 62 63 62 61
62 61 61 60 59 60 60 61 61 62 62 62 61 61 61 61 63 63 61 61 62 61
61 61 61 59 60 60 61 61 63 62 61 62 62 61 61 61 61 62 62 61 62 62
61 60 61 60 60 61 62 62 62 62 63 63 62 62 62 61 60 60 61 61 62 62
61 61 61 61 63 62 62 62 64 64 63 63 62 63 62 62 61 60 60 61 62 61
62 62 62 61 61 63 61 61 61 62 62 61 61 52 55 60 61 61 61 60 61 61
63 63 62 62 61 60 59 58 58 59 59 59 58 50 52 55 62 61 61 61 61 62
64 64 62 61 60 59 57 57 56 57 57 57 57 50 51 53 62 61 61 61 61 62
64 63 62 60 57 57 56 55 56 57 57 57 55 48 49 56 59 60 59 60 61 60
65 62 61 59 58 57 56 57 58 57 57 54 55 48 50 55 59 57 57 57 59 53
63 62 61 59 58 57 57 57 56 57 55 57 55 52 48 51 59 59 57 56 55 53

GFSNIL_sfc_temp_015.txt.gz
Temp
59 58 57 58 57 57 57 57 58 59 59 60 60 59 58 58 57 59 59 59 58 59
59 59 59 58 58 57 57 59 59 59 59 60 60 59 59 59 59 59 59 58 59 60
60 60 59 59 58 58 59 59 59 59 59 59 59 59 62 61 61 61 61 59 61 61
60 60 59 58 58 59 59 59 59 59 59 59 59 59 60 60 62 63 61 60 61 60
60 60 58 58 59 59 59 59 60 60 60 60 59 59 60 61 63 62 60 60 61 60
59 59 58 58 59 59 60 60 60 60 60 60 59 59 61 61 62 61 61 62 61 61
59 59 59 59 59 60 61 60 60 60 61 60 60 60 60 61 60 60 61 61 62 62
59 60 60 59 60 60 60 61 61 61 60 60 60 61 60 60 61 60 60 61 62 62
60 60 60 59 60 60 58 60 62 60 62 61 61 49 54 59 60 61 61 60 60 60
61 61 60 60 59 58 56 57 60 60 60 60 59 49 50 54 61 60 60 60 60 61
62 61 60 59 58 56 55 55 56 58 58 59 57 48 49 53 61 60 60 61 61 61
63 60 59 58 56 55 54 53 55 55 56 57 56 46 47 56 60 59 59 60 60 61
63 61 59 57 55 54 54 55 56 57 56 53 55 45 47 55 59 57 57 59 58 53
61 61 59 57 56 55 54 54 54 55 54 55 54 52 46 50 58 57 56 56 55 54

GFSNIL_sfc_temp_021.txt.gz
Temp
69 72 71 69 70 66 68 70 69 69 70 70 70 70 69 71 71 69 70 69 67 68
70 69 70 68 68 69 68 69 69 70 70 70 71 70 69 70 68 69 67 63 62 65
71 71 70 69 68 69 69 69 70 70 70 70 70 70 69 69 69 68 66 66 66 66
71 71 70 70 71 70 70 70 70 70 70 69 65 66 66 67 67 65 65 66 65 65
71 71 69 69 70 70 70 71 70 71 71 65 64 65 66 65 67 67 64 65 63 64
70 69 69 69 69 71 70 70 70 71 68 64 64 66 67 66 66 66 66 65 65 65
70 70 70 70 70 71 71 70 69 70 68 64 65 66 66 66 66 65 65 66 69 68
70 70 71 70 70 71 71 70 71 70 68 64 64 65 66 66 65 66 65 65 65 66
71 71 70 70 70 70 70 70 70 70 69 64 62 50 55 62 65 65 66 62 64 62
72 71 71 71 70 70 69 69 69 68 69 63 61 49 51 55 67 66 64 64 63 61
73 71 71 71 69 68 69 69 64 63 63 62 59 47 48 53 67 64 66 66 64 62
74 72 71 70 68 68 68 68 63 62 61 59 54 46 48 57 64 63 64 66 65 67
75 73 72 70 68 68 69 69 71 64 62 55 58 45 48 57 62 60 60 64 64 52
74 73 73 70 69 68 69 69 68 67 64 64 61 54 46 51 65 65 62 63 62 62

GFSNIL_sfc_temp_024.txt.gz
Temp
76 80 79 76 76 77 70 73 75 74 74 75 76 76 75 75 73 73 70 70 70 74
77 76 77 75 74 76 73 77 74 75 74 75 75 75 73 71 73 73 71 70 71 69
77 78 77 74 74 74 74 76 75 75 75 75 75 75 73 73 73 72 66 65 65 70
77 77 77 74 73 75 75 76 76 76 76 73 74 75 73 72 73 70 71 70 70 69
77 77 75 73 75 75 76 77 77 77 75 74 75 74 70 71 73 69 67 68 69 70
76 76 73 74 73 74 76 77 78 78 75 71 73 71 71 71 70 69 70 68 67 69
75 75 75 75 75 74 76 76 76 77 73 69 70 70 70 71 69 68 72 69 70 70
75 77 77 76 76 76 76 77 76 73 70 69 69 70 69 69 68 66 69 71 71 69
78 77 75 76 76 75 75 76 76 75 72 69 69 52 55 64 70 69 69 70 70 68
78 77 75 77 77 75 74 74 73 71 71 67 68 50 51 54 72 70 70 69 64 64
79 78 77 76 76 74 73 70 70 65 69 68 66 49 49 53 70 70 71 68 70 69
80 78 77 76 74 74 71 63 65 66 65 66 62 46 48 57 71 71 70 72 69 71
82 79 77 75 74 75 75 72 71 66 62 55 58 45 47 60 66 64 65 66 69 52
81 79 78 75 75 75 75 75 71 68 66 66 62 55 47 52 64 67 64 67 68 61

GFSNIL_sfc_temp_027.txt.gz
Temp
79 78 75 76 78 75 75 72 76 76 75 76 76 76 76 74 72 73 72 72 72 72
79 78 78 76 76 74 75 75 77 76 74 75 76 76 76 73 74 71 68 69 72 74
78 77 76 76 75 73 76 79 77 75 74 75 76 76 74 73 74 70 64 71 71 72
77 79 74 75 75 75 76 78 76 77 75 75 75 75 72 70 67 70 65 66 65 71
79 79 74 74 73 73 73 79 78 77 78 78 78 74 72 74 74 72 70 71 68 70
78 76 72 73 75 75 79 79 80 78 78 77 75 71 72 72 71 68 72 71 69 69
76 74 74 73 75 76 80 79 79 78 77 75 72 71 72 71 71 72 73 70 72 68
77 77 76 72 75 74 76 79 80 77 75 70 71 70 70 70 71 72 69 70 67 68
77 76 76 74 74 76 76 73 75 75 74 70 74 52 56 63 69 72 69 68 69 68
80 75 75 77 75 75 72 73 70 72 73 72 69 51 53 55 69 72 69 70 68 68
81 78 75 76 75 74 72 71 72 71 74 71 67 51 51 53 73 68 71 71 70 68
78 76 77 75 72 73 66 67 68 70 71 71 67 48 48 56 72 67 71 68 67 70
83 78 80 75 72 73 73 70 71 70 65 57 67 46 47 56 70 67 65 69 67 53
83 81 79 77 73 73 73 73 69 70 68 67 63 57 46 51 72 70 68 67 71 66

GFSNIL_sfc_temp_030.txt.gz
Temp
75 74 74 73 71 70 70 69 70 70 70 71 72 70 69 67 66 67 65 65 65 65
75 74 72 74 74 72 72 71 73 71 71 72 72 71 70 66 67 66 65 66 66 66
73 73 74 74 71 73 72 71 71 72 71 71 71 71 69 67 68 65 64 65 67 67
74 72 73 71 72 73 74 73 72 71 72 71 70 69 67 67 66 64 64 65 65 63
72 70 70 71 72 73 73 71 73 72 73 72 70 70 70 68 69 67 65 64 63 62
70 71 71 72 72 72 71 72 72 72 73 71 70 69 69 69 67 68 67 65 65 64
72 70 72 72 72 74 72 72 71 71 73 71 70 69 70 70 69 69 67 65 65 62
71 72 72 72 72 74 72 73 71 72 70 69 69 69 69 69 68 67 65 64 66 63
73 74 72 71 72 72 72 72 72 70 69 68 68 51 54 60 67 67 65 64 63 62
74 75 72 72 72 70 69 68 67 67 69 66 64 51 51 53 67 65 66 65 65 65
75 76 75 69 70 69 68 67 67 68 67 65 63 52 46 49 67 66 66 66 66 64
78 75 74 71 69 69 67 66 65 67 67 65 63 46 47 58 66 65 65 66 66 65
79 74 73 70 69 69 69 67 67 64 65 59 63 47 47 54 64 63 62 64 62 53
77 74 72 70 69 69 69 68 65 65 63 66 64 58 48 48 65 65 64 64 61 58

GFSNIL_sfc_temp_033.txt.gz
Temp
66 64 64 64 63 62 62 62 64 63 63 64 65 64 63 62 61 62 61 61 61 61
66 65 65 65 64 63 63 64 64 64 64 64 65 64 63 61 62 62 61 61 61 61
66 66 65 64 64 64 64 64 64 64 65 65 65 65 64 62 62 61 61 62 61 61
66 66 65 64 64 64 64 64 65 66 65 65 65 65 63 61 63 63 62 63 61 61
68 65 64 64 64 64 68 65 66 66 67 66 64 63 63 63 63 62 62 62 61 61
65 64 63 64 64 64 65 66 69 69 67 66 65 63 64 64 63 64 64 63 62 62
63 64 63 64 64 66 67 68 68 65 66 65 64 65 65 65 64 63 64 63 62 62
64 66 64 64 65 67 69 69 68 64 64 65 65 64 62 66 65 62 62 62 62 61
66 67 64 64 64 65 66 67 65 63 63 60 62 51 53 58 63 63 62 60 60 60
68 66 65 65 64 62 62 62 62 61 61 58 56 47 47 51 64 63 61 60 60 61
72 67 66 65 63 62 61 61 61 60 59 58 54 46 46 50 62 62 63 61 60 61
72 66 65 63 62 62 62 61 61 60 58 57 53 47 46 57 61 61 61 62 61 62
71 66 64 62 62 62 61 60 62 61 59 55 55 48 46 53 61 59 60 60 59 52
67 66 64 62 63 62 61 62 60 60 59 59 56 54 46 51 61 60 60 60 57 54

GFSNIL_sfc_temp_036.txt.gz
Temp
63 62 61 61 60 61 61 61 62 62 61 62 62 62 61 60 60 60 59 59 58 58
62 62 61 62 62 61 61 62 62 62 62 62 63 62 61 60 60 60 59 59 59 59
63 63 62 62 62 62 61 62 62 62 62 62 63 63 61 61 62 60 59 60 60 60
62 63 62 62 62 62 62 62 62 63 63 63 63 62 61 60 61 60 60 62 61 60
62 62 62 62 62 62 62 62 63 64 64 64 63 61 62 61 63 62 61 62 61 60
64 61 61 62 62 62 62 62 63 64 64 64 63 62 62 62 62 62 63 62 62 60
61 61 61 62 62 62 64 65 66 63 63 63 62 63 63 63 61 62 63 63 62 62
61 62 62 62 62 63 67 66 65 62 62 61 62 61 60 62 61 62 61 61 62 61
63 63 62 62 63 65 65 64 64 61 60 58 60 49 50 57 61 61 60 59 60 60
64 64 62 62 62 62 61 61 59 58 58 56 55 46 46 51 61 60 58 59 60 61
65 64 63 62 60 60 59 59 58 57 57 55 55 46 46 52 61 60 60 59 61 60
66 63 62 61 59 59 59 58 58 57 56 55 54 45 47 56 60 60 60 61 61 61
66 64 62 60 60 59 59 60 60 57 56 53 55 45 47 55 60 60 59 59 58 52
64 63 62 60 60 59 59 59 59 58 55 56 54 53 47 50 60 59 59 58 57 55

GFSNIL_sfc_temp_042.txt.gz
Temp
62 63 61 61 61 61 61 62 62 63 63 63 63 62 61 61 61 61 60 60 60 60
61 61 61 61 61 61 61 62 62 62 62 62 63 62 62 61 61 61 61 61 60 60
61 62 61 61 61 61 61 63 62 62 62 62 63 63 62 61 62 62 60 60 60 60
61 62 61 61 61 61 61 61 62 62 63 63 63 63 62 62 62 62 60 62 61 61
61 61 60 61 61 61 62 62 63 64 64 64 64 63 62 62 63 61 61 60 60 60
60 60 60 61 61 62 62 62 63 64 64 64 64 63 63 63 63 62 62 61 60 61
60 61 61 61 61 61 62 63 63 64 64 63 63 63 64 63 63 61 62 62 62 62
61 61 61 61 61 62 63 63 64 63 62 62 62 60 61 63 62 61 61 61 62 61
61 61 61 61 61 62 63 62 63 61 61 60 58 46 48 57 63 62 60 59 60 60
62 62 61 62 62 62 61 61 60 60 60 58 57 45 46 52 61 61 61 60 60 60
63 62 62 61 61 59 60 59 59 58 58 58 55 46 48 50 61 61 61 61 61 60
63 62 61 61 60 59 58 58 58 58 58 58 57 46 47 55 61 61 60 61 60 60
64 62 61 60 59 59 59 59 58 57 58 53 58 46 47 57 61 60 59 59 57 51
63 62 61 60 60 59 59 58 57 57 57 57 56 54 46 51 62 60 59 58 57 53

GFSNIL_sfc_temp_045.txt.gz
Temp
74 77 77 75 77 76 76 75 73 74 73 73 72 72 71 72 71 70 69 68 68 71
74 74 74 73 74 75 74 74 73 73 72 72 72 71 71 71 69 70 68 65 69 70
74 74 73 73 72 73 73 74 72 72 72 72 72 72 71 71 71 70 70 63 68 69
74 74 73 73 73 73 72 73 72 72 72 72 72 72 70 70 71 70 65 63 68 68
74 74 72 72 72 73 72 73 73 73 73 73 73 72 71 71 72 69 62 62 61 63
72 72 71 72 72 73 72 73 74 74 73 73 73 72 72 72 71 68 66 63 64 62
72 72 72 72 72 72 73 73 73 74 74 73 73 73 73 72 69 66 63 63 62 62
72 72 72 72 72 72 73 74 74 73 73 72 72 72 72 72 66 64 61 62 63 63
73 72 71 71 71 71 72 72 73 72 72 70 70 47 49 59 69 67 63 60 61 61
73 72 71 72 71 71 70 70 70 70 70 68 68 47 47 52 67 65 63 61 60 61
74 72 72 71 71 70 69 68 68 68 69 68 64 47 48 51 68 66 66 64 61 60
74 72 72 71 69 69 68 68 68 69 68 67 62 47 47 58 66 65 64 63 61 61
75 73 72 70 68 68 68 68 69 68 68 55 61 46 48 58 63 61 60 60 58 52
74 73 72 70 69 68 69 68 67 67 66 61 59 56 47 50 66 63 61 58 57 53

GFSNIL_sfc_temp_048.txt.gz
Temp
81 85 84 84 84 84 84 83 79 80 80 80 78 78 77 78 78 76 75 73 72 73
83 83 83 81 81 83 82 82 80 80 78 78 78 78 77 79 75 75 74 74 72 70
81 82 81 80 81 80 80 81 79 79 77 77 78 78 76 77 76 73 74 76 71 69
81 81 81 80 80 79 79 79 79 79 78 78 77 77 75 76 76 74 72 70 65 72
81 81 79 79 79 79 79 80 79 79 79 79 79 77 76 76 76 75 72 64 64 68
79 79 78 78 78 79 78 79 80 79 79 79 79 78 77 76 76 75 72 65 64 66
78 78 78 78 78 78 79 79 79 80 80 80 79 79 78 77 75 68 65 63 63 63
78 79 79 78 78 78 79 80 81 80 80 79 78 81 77 76 72 70 61 62 63 63
79 79 77 77 77 77 78 79 79 78 79 76 80 48 50 59 72 69 63 61 63 65
79 79 78 77 77 77 76 76 76 76 76 75 74 48 49 52 71 68 63 62 62 61
81 79 78 77 77 75 75 74 74 74 75 75 70 48 48 52 71 69 67 63 62 61
81 79 78 77 75 74 74 73 74 75 74 71 66 47 47 55 71 70 67 64 61 62
81 79 77 77 75 74 73 74 76 74 70 59 65 46 48 60 69 68 64 61 59 52
79 79 78 76 75 73 75 74 73 73 67 66 65 60 47 50 70 69 63 62 57 55